Regional Weather Roundup
Issued by NWS Memphis, TN

Home | Current Version | Previous Version | Text Only | Print | Product List | Glossary On
Versions: 1 2 3 4 5 6 7 8 9 10 11 12 13 14 15 16 17 18 19 20 21 22 23 24 25 26 27 28 29 30 31 32 33 34 35 36 37 38 39 40 41 42 43 44 45 46 47 48 49 50
000
ASUS44 KMEG 051810
RWRMEG
MEMPHIS CWA HOURLY WEATHER ROUNDUP
NATIONAL WEATHER SERVICE MEMPHIS TN
100 PM CDT SUN JUL 05 2015

...WEST TENNESSEE...

CITY           SKY/WX    TMP DP  RH WIND       PRES   REMARKS
MEMPHIS INTL   PTSUNNY   80  70  71 S10       30.10S
6HR MIN TEMP:  70; 6HR MAX TEMP:  82;

NWS MEMPHIS      N/A     83 N/A N/A MISG        N/A
JACKSON        PTSUNNY   82  71  69 SW8       30.09R
6HR MIN TEMP:  73; 6HR MAX TEMP:  84;

LEXINGTON      MOSUNNY   81  70  69 SW3       30.09S
DYERSBURG        N/A    N/A N/A N/A MISG        N/A
PARIS          MOSUNNY   81  68  65 W3        30.10S


...EASTERN ARKANSAS...

CITY           SKY/WX    TMP DP  RH WIND       PRES   REMARKS
JONESBORO      PTSUNNY   82  72  71 S9        30.07S
6HR MIN TEMP:  70; 6HR MAX TEMP:  83;

WEST MEMPHIS   PTSUNNY   80  73  79 S10       30.09R
6HR MIN TEMP:  69; 6HR MAX TEMP:  82;

BATESVILLE     CLOUDY    81  72  74 SE7       30.08R
6HR MIN TEMP:  72; 6HR MAX TEMP:  81;

NEWPORT        PTSUNNY   83  73  71 S8        30.09R
6HR MIN TEMP:  71; 6HR MAX TEMP:  84;

WALNUT RIDGE   MOSUNNY   81  72  74 SE9       30.07S
6HR MIN TEMP:  72; 6HR MAX TEMP:  81;

BLYTHEVILLE    MOSUNNY   83  73  72 S8        30.08S
6HR MIN TEMP:  71; 6HR MAX TEMP:  83;

SEARCY         CLOUDY    83  73  72 W3        30.08S
6HR MIN TEMP:  71; 6HR MAX TEMP:  83;

STUTTGART      CLOUDY    77  70  78 MISG      30.08S
6HR MIN TEMP:  72; 6HR MAX TEMP:  81;

PINE BLUFF     CLOUDY    74  72  93 SE10      30.10R FOG
6HR MIN TEMP:  71; 6HR MAX TEMP:  76; 6HR PCP: TRACE;

MONTICELLO     CLOUDY    69  69 100 SE12      30.13S
6HR MIN TEMP:  70; 6HR MAX TEMP:  74; 6HR PCP:  0.05;



...NORTH MISSISSIPPI...

CITY           SKY/WX    TMP DP  RH WIND       PRES   REMARKS
TUPELO         CLOUDY    80  71  74 SW9       30.11F
6HR MIN TEMP:  70; 6HR MAX TEMP:  80;

OLIVE BRANCH   PTSUNNY   79  75  89 S10       30.11S
TUNICA         CLOUDY    79  70  73 S12       30.12R
CLARKSDALE     CLOUDY    75  75 100 SE8       30.12F
CORINTH        CLOUDY    79  68  69 SW7       30.11F HAZE
GREENWOOD      LGT RAIN  71  68  90 SW8       30.14F
6HR MIN TEMP:  71; 6HR MAX TEMP:  74; 6HR PCP:  0.22;

COLUMBUS       CLOUDY    79  72  78 S9        30.12F
6HR MIN TEMP:  72; 6HR MAX TEMP:  79;

STARKVILLE     FAIR      73  70  88 SW8       30.14S
GOLDEN TRIANGL PTSUNNY   77  70  78 SW7       30.13S


...SOUTHEAST MISSOURI...

CITY           SKY/WX    TMP DP  RH WIND       PRES   REMARKS
WEST PLAINS    PTSUNNY   81  69  67 VRB5      30.10S
6HR MIN TEMP:  70; 6HR MAX TEMP:  80;

POPLAR BLUFF   SUNNY     81  71  71 SE3       30.07S
6HR MIN TEMP:  69; 6HR MAX TEMP:  81;

CAPE GIRARDEAU MOSUNNY   82  69  64 CALM      30.08S HAZE
6HR MIN TEMP:  69; 6HR MAX TEMP:  82;



...NORTHWEST ALABAMA...

CITY           SKY/WX    TMP DP  RH WIND       PRES   REMARKS
MUSCLE SHOALS  PTSUNNY   82  67  60 SW9       30.13S
6HR MIN TEMP:  69; 6HR MAX TEMP:  83;



...MIDDLE TENNESSEE...

CITY           SKY/WX    TMP DP  RH WIND       PRES   REMARKS
NASHVILLE      PTSUNNY   81  71  71 CALM      30.10R
6HR MIN TEMP:  71; 6HR MAX TEMP:  82; 6HR PCP:  0.09;

CLARKSVILLE    PTSUNNY   82  66  58 VRB6      30.08S
6HR MIN TEMP:  70; 6HR MAX TEMP:  83;

COLUMBIA       MOSUNNY   82  72  69 CALM      30.09F


...WESTERN KENTUCKY...

CITY           SKY/WX    TMP DP  RH WIND       PRES   REMARKS
PADUCAH        MOSUNNY   83  66  56 S3        30.08S
6HR MIN TEMP:  66; 6HR MAX TEMP:  84;

FORT CAMPBELL  PTSUNNY   84  69  60 SW5       30.08R
6HR MIN TEMP:  70; 6HR MAX TEMP:  84;



...CENTRAL ARKANSAS...

CITY           SKY/WX    TMP DP  RH WIND       PRES   REMARKS
LITTLE ROCK    CLOUDY    82  72  71 S8        30.07S
6HR MIN TEMP:  72; 6HR MAX TEMP:  83;



SKY/WX REPORTED AS FAIR MEANS FEW OR NO CLOUDS BELOW
12 THOUSAND FEET.




USA.gov is the U.S. government's official web portal to all federal, state and local government web resources and services.